Powrót do katalogu

STARLINK-30250

AktywnyŁącznośćVLEO
NORAD 57527·PAYLOAD·🇺🇸 United States

Wystrzelony Aug 8, 2023 z Vandenberg Space Force Base

Loading…

Następne Przeloty (najbliższe 24 godziny)

TLE

ŚwieżeSource: CelesTrak SupGP

Epoka: Sep 15, 2026, 02:25 UTC

1 57527C 23115G   26258.10118056  .00026533  00000+0  95071-3 0  2584
2 57527  42.9994  12.1664 0002443 297.3896 150.3123 15.27916694    18

Śledź STARLINK-30250 w czasie rzeczywistym z AllMySat

Download on the App Store